CZ-6A DEB, 61077

Orbit data source: Space-Track

CZ-6A DEB, 61077 is space debris in LEO originally from a launch on Tue, 06 Aug 2024 UTC launched from the Taiyaun Space Center, China (TSC). Debris objects in space refer to the collection of defunct objects orbiting the Earth. Examples of debris include non-operational satellites, rocket bodies, and fragments generated from explosions, collisions, or faulty payload assembly.

Loading next visibility...
Identifier
61077, 2024-140MT
Orbit
LEO
Country
Flag of CNCN / PRC
Related business
Manufacturer
SAST
Mission
Spacecraft
Bus & Motor
Unknown
Mass
Unknown
Launch date (UTC)
2024-08-06 (2 years ago)
Launch vehicle
Unknown
Launch site
Taiyaun Space Center, China (TSC)
Object type
Payload
Rocket body
Debris
Shape & HBR
Unknown shape, 0.1 m
Radar Cross Section
Medium (>0.1 m² and <1 m²)

Expand to show TLE details & history
Last TLE update: 9 hours ago

TLE from 9 hours ago
0 CZ-6A DEB
1 61077U 24140MT  26171.46609338  .00002256  00000-0  55032-3 0  9991
2 61077  88.5968 236.8852 0071439 231.2198 128.2614 14.50817063 95969
Epoch: 2026-06-20T11:11Z
TLE epoch observation values (Epoch: 2026-06-20T11:11:10.468Z)
Latitude
-0.00001°
Longitude
160.41127°
Altitude
757.72 km
Speed
7.459 km/s
True Right ascension
15h 47m 32s
True Declination
0° 00' 00"
Sunlit
Object was in full shadow at epoch
Visualization orbit readout
Latitude
Unknown
Longitude
Unknown
Altitude
Unknown
Speed
Unknown
Apparent Right ascension
Unknown
Apparent Declination
Unknown
Sunlit
N/A
Visualization observer readout
Local Sidereal Time
07:24:08
Azimuth
Unknown
Elevation
Unknown
Doppler factor
Unknown
Orbital elements
Apogee altitude
770.598 km
Perigee altitude
669.183 km
Semi-major axis
7,098.028 km
Eccentricity
0.00714
Inclination
88.5968°
RAAN
236.8852°
Arg. of periapsis
231.2198°
True anomaly
128.90063°
Mean anomaly
128.2614°
Eccentric anomaly
128.58137°
Mean motion
3.62941 °/min
Orbital period
99.19 mins
BSTAR
0.00055032
Loading maneuver chart data...
Computing Atmospheric mass density...
Loading historical data...
Loading historical data...
Loading historical data...
Loading historical data...
Loading historical data...
Loading historical data...
Loading historical data...

Documentation

Showing up to 5 results
|